Regional Weather Roundup
Issued by NWS

Home | Current Version | Previous Version | Text Only | Print | Product List | Glossary On
Versions: 1 2 3 4 5 6 7 8 9 10 11 12 13 14 15 16 17 18 19 20 21 22 23 24 25 26 27 28 29 30 31 32 33 34 35 36 37 38 39 40 41 42 43 44 45 46 47 48 49 50
000
ASUS43 KMKX 182111
RWRWI

WISCONSIN REGIONAL WEATHER ROUNDUP
NATIONAL WEATHER SERVICE MILWAUKEE/SULLIVAN WI
400 PM CDT FRI APR 18 2014

NOTE: "FAIR" INDICATES FEW OR NO CLOUDS BELOW 12,000 FEET WITH NO
SIGNIFICANT WEATHER AND/OR OBSTRUCTIONS TO VISIBILITY.

WIZ001-002-006>008-014>016-023>028-182200-
NORTHWEST WISCONSIN

CITY           SKY/WX    TMP DP  RH WIND       PRES   REMARKS
SUPERIOR ARPT  SUNNY     37  25  61 NE9       30.39S WCI  30
ASHLAND        SUNNY     38  25  59 NE12      30.39F WCI  30
HAYWARD        SUNNY     44  19  36 CALM      30.34F
SIREN          CLOUDY    46  18  32 E6        30.33F
RICE LAKE      PTSUNNY   46  24  42 S3        30.35F
LADYSMITH      MOSUNNY   47  20  34 E7        30.36F
EAU CLAIRE     SUNNY     51  22  31 NE5       30.32F
MENOMONIE      CLEAR     51  21  31 E7        30.33F
NEW RICHMOND   SUNNY     49  26  39 SE9       30.32F
OSCEOLA        SUNNY     46  27  47 E10       30.35F
$$

WIZ003>005-009-010-017-018-182200-
NORTH CENTRAL WISCONSIN

CITY           SKY/WX    TMP DP  RH WIND       PRES   REMARKS
WOODRUFF       SUNNY     45  17  32 N3G9      30.34F
RHINELANDER    SUNNY     42  16  34 NW5       30.35F
EAGLE RIVER    SUNNY     39  18  41 CALM      30.34F
LAND O LAKES   SUNNY     39  23  52 N7        30.35F WCI  34
PHILLIPS       SUNNY     41  18  40 N8        30.34F
TOMAHAWK       SUNNY     43  16  33 NE3       30.35F
MEDFORD        SUNNY     45  19  35 NW3       30.33F
MERRILL        SUNNY     46  22  38 CALM      30.34F
$$

WIZ029-030-035-036-043>047-182200-
CENTRAL WISCONSIN

CITY           SKY/WX    TMP DP  RH WIND       PRES   REMARKS
WAUSAU         SUNNY     48  18  30 NE8       30.33S
MOSINEE        SUNNY     46  25  42 N10       30.35F
MARSHFIELD     SUNNY     50  23  34 N9        30.33F
STEVENS POINT  SUNNY     48  18  30 NW7       30.34F
WAUPACA        SUNNY     54  14  20 CALM      30.35S
WAUTOMA        SUNNY     53  22  30 VRB3      30.34F
WISC RAPIDS    SUNNY     52  20  28 N8        30.35F
CAMP DOUGLAS   SUNNY     55  23  28 VRB1      30.32F HAZE
$$

WIZ011>013-019>022-031-037>040-048>050-182200-
NORTHEAST WISCONSIN

CITY           SKY/WX    TMP DP  RH WIND       PRES   REMARKS
ANTIGO         SUNNY     43  22  43 N7        30.35S
STURGEON BAY   SUNNY     45  25  45 N8        30.38S
GREEN BAY      MOSUNNY   49  28  44 VRB3      30.36S
MANITOWOC      MOSUNNY   42  29  59 E10       30.38S
APPLETON       MOSUNNY   16  21 100 NW8       30.35F WCI   5
CLINTONVILLE   SUNNY     50  19  29 N3        30.34S
OSHKOSH        SUNNY     49  28  44 NE7       30.36S
$$

WIZ032>034-041-042-053>061-182200-
SOUTHWEST WISCONSIN

CITY           SKY/WX    TMP DP  RH WIND       PRES   REMARKS
LA CROSSE      SUNNY     55  26  32 W7        30.32F
SPARTA         SUNNY     55  21  26 N5        30.33F
VIROQUA        FAIR      53  26  35 N5        30.31F
BOSCOBEL       SUNNY     57  23  26 VRB3      30.32F
PRAIRIE DU CHI SUNNY     57  22  26 N3        30.31F
PLATTEVILLE    FAIR      56  28  34 E3        30.32F
$$

WIZ056-057-062-063-064-067-068-182200-
SOUTH CENTRAL WISCONSIN

CITY           SKY/WX    TMP DP  RH WIND       PRES   REMARKS
BARABOO/DELLS  SUNNY     53  22  30 CALM      30.32F
LONE ROCK      SUNNY     55  27  34 VRB5      30.32F
WATERTOWN      SUNNY     51  31  45 E7        30.33S
MADISON        MOSUNNY   54  25  32 W5        30.33F
MIDDLETON      FAIR      55  23  29 E3        30.33F
MONROE         SUNNY     56  29  34 N3        30.31F
JANESVILLE     SUNNY     57  27  30 CALM      30.31F
$$

WIZ051-052-058>065-066-070>072-182200-
SOUTHEAST WISCONSIN

CITY           SKY/WX    TMP DP  RH WIND       PRES   REMARKS
MILWAUKEE      MOSUNNY   42  31  64 NE12      30.37S
WAUKESHA       SUNNY     48  32  53 NE9       30.34F
MILWAUKEE/TIMM SUNNY     43  28  56 E9        30.36S
RACINE         SUNNY     43  31  62 NE12      30.37F
BURLINGTON     SUNNY     52  36  53 NE10G17   30.32R
KENOSHA        SUNNY     44  32  62 E14       30.35S
FOND DU LAC    SUNNY     48  28  46 NE8       30.36S
SHEBOYGAN      SUNNY     42  31  64 NE10      30.37S
WEST BEND      SUNNY     46  32  57 E6        30.35R
JUNEAU         SUNNY     51  25  36 N8        30.35S
$$

LSZ147-162-182200-
LAKE SUPERIOR

STATION/POSITION TIME  TEMP    WIND        PRES    WAVE
                       AIR SEA DIR/SP/G            HT/PER
                 (UTC) (F)     (DEG/KT/KT) (MB)    (FT/S)
DEVILS ISLAND    2100   33      90/  8/  9 1031.0F
PORT WING        2040   35      30/ 13/ 14 1029.1F
SAXON HARBOR     2000           50/  9/ 11 1030.1F
$$

LMZ867-665-643>646-182200-
LAKE MICHIGAN

STATION/POSITION TIME  TEMP    WIND        PRES    WAVE
                       AIR SEA DIR/SP/G            HT/PER
                 (UTC) (F)     (DEG/KT/KT) (MB)    (FT/S)
NORTHPORT PIER   2000   38     310/  3/  4 1028.4S
SISTER BAY       2023             CALM       N/A
KEWAUNEE LAKESHO 2000   37     100/  7/  9 1029.3S
SHEBOYGAN LAKESH 2100   36      60/  9/ 11 1029.6S
PORT WASHINGTON  2000   38      70/  7/ 11 1029.1S
MILWAUKEE LAKESH 2000   36      50/ 11/ 13   N/A
KENOSHA   LAKESH 2100   36      50/ 13/ 15   N/A
$$

TC  - TEMPERATURE IN CELSIUS
VSB - VISIBILITY IN STATUTE MILES
WCI - WIND CHILL INDEX
HX  - HEAT INDEX




USA.gov is the U.S. government's official web portal to all federal, state and local government web resources and services.